Powrót do katalogu

KUIPER-00139

AktywnyŁącznośćLEO
NORAD 65765·PAYLOAD·🇺🇸 United States

Wystrzelony Sep 25, 2025 z Cape Canaveral Space Force Station

Loading…

Następne Przeloty (najbliższe 24 godziny)

TLE

ŚwieżeSource: CelesTrak SupGP

Epoka: Sep 14, 2026, 16:04 UTC

1 65765C 25217D   26257.66987269 -.00002070  00000+0 -27095-3 0  2574
2 65765  51.8970 264.9419 0000712  45.6107 208.3649 14.79936393    16

Śledź KUIPER-00139 w czasie rzeczywistym z AllMySat

Download on the App Store